Location: St. Louis
(38.6270°N, 90.1994°W)
Time: 08:51:46
(UTC-06:00)

Transit 2A Rocket - Pass Details

Date: 07 December 2021
Orbit: 584 x 917 km, 66.7° (Epoch: 23 January)

Event Time Altitude Azimuth Distance (km) Brightness Sun altitude
Rises 17:01:03 0° 317° (NW) 3,523 8.7 -4.6°
Reaches altitude 10° 17:04:11 10° 302° (WNW) 2,544 8.2 -5.2°
Maximum altitude 17:08:29 21° 256° (WSW) 1,812 8.2 -5.9°
Drops below altitude 10° 17:12:33 10° 208° (SSW) 2,395 8.4 -6.7°
Sets 17:15:25 0° 193° (SSW) 3,260 8.8 -7.2°
